GFSSGP_con_mucape_015.txt.gz
CAPE
0 0 0 0 0 2 19 5 16 2 0 0 0 0 0 0 0 0 0 0 78 0 289 1290 1735 1673 1432 1397 1340 1254 1197 1101 586 517 366 24 0 0 0 0 0 0 0 0 0 0 8 87 5
0 0 0 0 0 5 23 0 4 0 0 0 0 0 0 0 0 0 0 0 129 150 520 815 1846 1742 1783 1667 1515 1421 1430 1316 926 683 594 180 0 0 0 23 18 22 14 9 4 1 6 102 178
0 0 0 7 12 12 17 0 0 0 0 0 0 0 0 0 0 0 0 0 20 126 107 575 1915 1823 1948 1824 1795 1772 1773 1481 933 534 399 314 250 273 98 85 120 87 67 45 17 4 2 22 140
0 0 18 7 31 0 0 0 0 0 0 0 0 0 0 0 0 0 0 0 0 0 157 1389 1946 1964 2195 1804 1950 1927 1633 1267 796 290 294 38 29 270 198 83 83 93 102 85 72 11 8 14 175
0 0 0 6 10 3 1 0 1 0 0 0 0 0 0 0 0 0 0 0 0 0 398 1225 1987 1822 1304 799 938 1106 629 204 109 108 63 36 47 61 89 111 139 124 120 127 164 141 108 216 239
3 0 0 0 0 6 0 0 2 0 0 0 0 0 0 0 0 0 0 0 0 0 0 39 805 945 994 1117 1117 824 269 0 0 0 0 0 0 13 21 50 45 75 43 85 185 308 425 383 216
1 0 0 0 0 0 1 1 1 0 0 0 0 0 0 0 0 0 0 0 0 0 0 0 7 301 1132 1089 1063 235 0 0 0 0 0 0 0 0 2 7 15 22 82 122 356 478 481 543 388
0 0 0 0 0 1 6 0 1 0 1 0 0 0 0 0 0 0 0 0 0 0 0 0 0 0 0 10 338 1 0 0 0 0 0 0 0 0 0 1 6 56 184 304 648 547 433 593 529
5 1 0 0 0 0 0 0 0 0 0 0 0 0 0 0 0 0 0 0 0 0 0 0 0 0 0 0 0 40 22 10 7 7 0 0 0 0 0 2 39 296 442 450 608 665 578 754 510
12 2 0 0 0 0 0 0 0 0 0 0 0 0 0 0 0 0 0 0 0 0 0 0 0 0 0 0 0 0 0 10 1 0 0 0 0 0 0 0 22 235 494 680 705 707 668 415 89
4 0 0 0 0 0 0 0 0 0 0 0 0 0 0 0 0 0 0 0 0 0 0 0 0 0 0 0 1 0 0 0 0 0 0 0 0 0 0 0 0 31 256 373 537 480 513 429 120
15 0 0 0 0 0 0 0 0 0 0 0 0 0 0 0 0 0 0 0 0 0 0 3 2 7 23 43 19 0 0 0 0 0 0 0 0 0 4 0 0 21 105 314 435 450 392 248 110
5 0 0 0 3 1 0 0 0 0 0 0 0 0 0 0 0 0 0 0 0 0 0 7 4 53 155 108 15 0 0 0 0 0 0 12 1 6 0 0 3 2 33 189 349 370 288 78 37
0 0 0 1 2 0 0 0 0 0 0 1 0 0 0 0 0 0 0 0 0 0 0 0 46 101 65 30 0 0 16 4 0 0 4 10 22 8 0 12 19 7 0 102 200 238 253 219 79
0 0 0 0 0 0 0 0 0 0 0 0 0 0 0 0 0 0 0 0 0 0 0 10 6 22 3 50 9 35 9 26 5 7 21 42 35 38 0 55 65 53 30 14 219 160 225 218 158
0 0 0 0 0 0 0 0 0 0 0 0 0 0 0 0 0 0 0 0 0 0 2 20 26 0 72 9 51 43 2 79 70 44 39 34 47 46 61 93 124 55 9 30 216 185 193 231 199
0 0 0 0 0 0 0 0 0 1 1 0 0 0 1 1 0 0 0 0 0 0 0 24 31 11 111 17 6 53 195 186 111 75 14 0 2 21 92 106 79 127 51 24 116 126 193 230 224
0 0 0 0 0 0 0 0 0 0 0 0 0 3 32 6 0 0 0 0 0 0 2 26 2 25 40 12 123 71 177 171 158 86 0 0 0 0 83 159 97 99 25 73 83 148 214 206 258
0 0 0 0 0 0 0 0 0 2 1 0 31 26 5 7 0 0 4 0 0 0 15 88 117 3 49 202 151 364 183 29 53 62 42 13 0 11 31 158 148 139 33 39 117 112 137 160 155
0 0 0 0 0 3 0 0 10 21 7 29 0 2 0 2 0 1 17 0 3 0 0 204 42 100 241 439 268 449 221 216 90 58 59 47 29 18 33 167 179 144 68 122 124 153 166 111 212
0 0 0 0 0 0 0 0 0 0 7 0 0 1 0 0 0 5 14 0 0 0 0 38 66 231 474 289 331 109 42 69 57 36 56 40 94 62 140 153 98 204 80 102 163 141 99 143 180
0 0 0 0 0 0 0 0 0 0 0 0 0 0 0 0 5 8 34 6 2 0 0 66 133 316 443 228 354 277 72 50 44 7 48 73 103 85 131 134 160 121 151 124 144 154 132 71 215
0 0 0 0 0 2 0 0 0 0 0 0 0 0 0 0 13 24 51 9 3 0 1 15 146 364 363 342 302 101 117 101 14 0 6 16 10 143 156 232 170 149 228 189 187 124 97 73 83
0 0 0 0 5 0 0 0 0 0 0 0 0 0 4 1 10 36 43 11 0 0 0 128 146 342 381 294 211 100 63 58 1 0 8 41 94 163 248 184 284 208 145 164 189 60 44 40 86
0 0 0 0 0 0 0 0 0 0 0 0 0 19 2 0 8 60 54 13 10 0 2 27 66 51 99 129 121 37 32 12 0 0 5 67 105 128 200 240 370 354 138 227 156 153 55 41 115
0 0 0 0 0 0 0 0 0 0 0 0 0 20 41 46 57 62 28 2 4 0 10 30 17 3 24 126 99 33 9 64 3 23 116 50 98 144 210 296 350 324 351 430 248 174 140 132 299
0 0 0 0 0 0 0 0 4 0 0 0 7 48 51 40 65 50 1 0 0 0 0 0 17 0 6 50 0 97 69 104 132 105 122 102 135 160 234 236 283 382 490 310 298 191 213 406 364
0 0 8 0 0 0 0 0 0 2 0 1 74 81 110 122 74 18 0 0 0 0 0 2 1 0 0 5 0 0 116 140 235 206 77 117 53 83 231 354 398 397 354 328 275 201 222 234 218
0 0 9 5 0 0 0 0 0 0 4 12 156 157 171 135 42 5 0 0 0 0 0 0 0 0 0 0 0 0 1 68 107 85 56 92 106 123 178 218 284 266 308 231 267 122 99 199 87
0 0 1 0 0 0 0 0 0 25 57 68 217 183 191 85 10 0 0 0 0 0 0 0 0 0 0 0 0 0 5 73 99 99 24 42 102 162 165 274 260 255 198 130 151 99 42 38 63

GFSSGP_con_mucape_021.txt.gz
CAPE
12 0 0 0 0 0 14 2 2 0 0 0 0 0 0 0 0 0 0 57 13 5 1 952 1327 1150 853 805 645 526 476 195 29 0 0 4 3 1 0 0 2 0 0 0 0 0 0 0 5
0 0 13 18 14 15 0 4 0 0 1 0 0 0 0 0 0 0 2 66 39 25 76 596 1353 1261 1169 1069 1097 992 513 257 123 86 171 208 214 110 0 0 3 8 9 10 7 1 2 0 0
0 0 0 1 19 6 0 0 1 0 0 0 0 0 0 0 0 0 0 11 25 0 89 386 1511 1492 1508 1354 1372 1245 740 561 534 550 573 380 397 221 59 2 2 14 57 26 17 26 10 4 0
0 0 0 10 0 0 3 0 0 0 1 0 0 0 0 0 0 0 0 0 0 0 30 391 1684 1704 1782 1731 1684 1557 1037 743 726 798 853 476 344 327 425 137 92 103 85 62 26 23 72 38 9
0 9 28 11 0 1 4 0 0 0 0 0 0 0 0 0 0 0 81 20 0 3 111 441 1857 1908 2013 2000 1746 1636 1443 1442 1426 1048 909 619 440 356 124 79 93 131 107 77 49 47 93 144 132
0 0 0 0 0 0 0 0 0 0 0 0 0 0 0 0 0 0 79 32 6 26 149 451 1770 1982 2039 2110 1929 1975 1908 1939 1690 1180 868 477 297 208 149 84 57 52 59 80 129 142 343 340 240
0 0 0 0 0 0 0 0 0 0 0 0 0 0 0 0 0 0 6 16 4 73 256 647 1339 1630 2073 2057 2131 2191 2191 1960 1281 886 492 73 25 22 24 31 18 21 44 84 118 108 251 418 266
0 0 0 0 0 0 0 2 2 0 0 0 0 0 0 0 0 0 0 0 2 198 361 531 808 1040 1100 1401 1656 1747 1676 1096 821 233 10 0 9 32 40 18 13 19 13 23 40 75 273 495 444
0 0 0 0 0 0 0 0 2 3 0 0 0 0 0 0 0 0 0 0 1 127 283 244 330 368 392 417 579 1165 723 485 223 47 50 91 1 7 8 0 0 9 37 123 113 60 348 409 244
0 0 0 0 0 0 0 2 0 0 2 0 0 0 0 0 0 0 0 0 0 0 0 0 11 76 31 0 0 18 92 61 52 50 8 15 5 0 0 0 1 7 17 125 168 206 273 298 177
0 0 0 0 0 0 0 0 1 0 0 1 13 0 0 0 0 0 0 0 0 0 0 0 0 0 0 0 0 9 44 6 0 1 6 0 0 0 0 0 0 0 0 0 3 61 154 219 237
0 0 0 0 0 0 0 0 0 0 0 9 0 0 0 0 0 0 0 0 1 3 5 0 0 0 0 0 9 0 0 0 0 0 0 0 0 0 0 0 0 0 1 0 0 0 137 332 329
0 0 0 0 0 0 0 0 0 0 0 0 0 0 0 0 0 0 0 0 6 16 7 0 0 0 0 29 34 2 0 0 0 0 0 0 0 0 0 1 2 2 0 0 0 0 109 257 284
0 0 0 0 0 0 0 0 3 0 0 0 0 0 0 0 0 0 0 0 17 18 18 0 0 1 32 72 15 14 0 0 4 3 0 0 0 0 0 14 16 0 0 0 0 0 146 271 224
0 0 0 0 0 0 0 0 0 0 0 0 0 0 0 0 0 0 0 0 0 0 2 0 1 21 99 14 11 7 5 20 16 9 4 0 0 0 0 13 9 0 0 0 0 0 123 199 333
0 0 0 0 0 0 0 0 0 0 0 0 0 0 0 0 0 4 0 0 0 0 1 1 30 78 25 16 34 11 34 37 35 71 15 0 4 2 0 4 2 0 10 4 0 0 84 197 221
0 0 0 0 0 0 0 0 0 0 0 0 0 0 1 0 1 1 0 0 0 0 0 2 21 7 21 50 3 38 52 59 80 40 0 0 6 7 0 0 0 0 29 28 0 0 88 145 170
0 0 0 0 0 0 0 0 0 0 0 0 0 0 0 0 4 2 0 15 15 0 0 7 7 51 47 14 58 119 159 102 11 1 1 10 12 3 0 0 5 54 27 28 0 0 90 129 198
0 0 0 0 0 0 0 0 0 0 0 0 0 0 0 3 14 17 33 50 21 28 11 21 6 35 12 97 154 170 201 135 55 7 17 38 27 4 0 0 45 54 16 0 0 33 101 103 143
0 0 0 0 0 0 0 0 0 0 0 0 0 0 0 5 12 23 31 16 31 18 5 0 2 4 107 367 156 229 124 18 5 18 15 28 42 24 8 5 60 77 6 0 0 7 43 56 94
0 0 0 0 0 0 0 0 0 0 0 0 0 1 0 1 3 12 23 34 12 0 0 10 2 91 347 170 142 90 5 0 0 0 0 1 38 58 45 4 24 64 13 0 0 7 64 71 39
0 0 0 0 0 0 0 0 0 0 0 0 0 0 0 3 0 0 19 5 0 0 5 5 38 280 248 144 121 3 0 0 0 0 0 0 27 46 54 122 100 11 11 5 0 14 84 95 70
0 0 0 0 0 0 0 0 0 0 0 0 0 0 0 0 0 0 0 0 0 0 6 10 96 313 217 209 106 0 0 0 0 0 0 0 9 68 95 24 14 9 25 39 23 37 51 45 83
0 0 0 0 0 0 0 0 0 0 0 0 0 0 0 0 0 0 0 0 0 0 0 9 201 283 220 182 35 0 0 0 0 2 9 4 55 70 96 99 71 19 29 11 10 12 18 26 56
0 0 0 0 0 0 0 0 0 0 0 0 0 0 0 0 0 0 0 0 0 0 0 26 86 260 232 80 2 0 0 0 0 40 55 21 65 81 92 112 47 76 72 4 1 0 0 27 19
0 0 0 0 0 0 0 0 0 0 0 0 0 0 0 0 0 0 0 0 0 0 0 9 44 117 121 28 0 0 0 0 33 58 61 42 73 88 85 131 135 58 66 53 7 0 0 23 23
0 0 0 0 0 0 0 0 0 0 0 0 0 0 0 0 0 0 0 0 0 0 0 6 14 5 29 10 0 0 0 14 70 66 39 66 107 119 101 82 125 128 134 40 5 0 0 3 2
0 0 0 0 0 0 0 0 0 0 0 0 0 0 0 0 0 0 0 0 0 0 0 0 8 0 14 0 0 0 0 47 39 13 26 21 84 99 147 122 101 167 177 63 3 4 10 2 29
0 0 0 0 0 0 0 0 0 0 0 0 0 0 0 0 0 0 0 0 0 0 0 0 10 0 3 0 0 0 0 0 5 0 17 23 93 118 107 102 40 149 146 67 35 102 122 167 111
0 0 0 0 0 0 0 0 0 0 0 0 0 0 0 3 0 0 0 0 0 0 0 0 10 0 0 0 0 0 0 0 0 0 19 29 82 91 143 109 94 116 98 58 74 111 29 48 41

GFSSGP_con_mucape_024.txt.gz
CAPE
18 0 0 0 0 0 0 0 0 0 0 0 0 0 0 0 0 0 0 0 0 0 5 869 1334 1010 700 720 637 498 362 131 0 0 0 0 0 0 0 0 0 0 0 0 0 0 0 0 0
0 0 0 1 0 1 0 0 0 0 0 2 0 0 0 0 0 0 0 10 30 0 2 573 1432 1175 1016 941 825 685 506 271 74 2 0 0 2 35 32 2 7 15 14 14 5 0 1 2 0
0 0 0 0 4 0 0 0 0 0 0 0 0 0 0 0 0 0 0 43 26 0 35 308 1529 1380 1289 1176 1123 1021 829 606 228 107 64 147 174 295 247 57 0 9 29 34 54 25 22 1 3
0 0 0 4 0 0 0 0 0 0 0 0 0 0 0 0 0 0 0 72 20 6 65 357 1564 1544 1553 1526 1485 1404 985 753 486 433 425 537 448 370 324 186 73 62 14 49 62 35 22 17 50
0 0 4 12 0 0 0 0 0 0 0 0 0 0 0 0 0 0 0 5 38 41 101 354 1597 1694 1749 1774 1703 1722 1485 1383 1250 650 662 774 629 473 330 272 215 88 47 102 32 34 87 220 187
0 0 0 0 0 0 0 0 0 0 0 0 0 0 0 0 0 0 0 0 29 47 81 324 1406 1810 1839 1942 1901 1922 1798 1686 1632 1363 1415 1149 1014 636 359 224 163 142 88 44 70 110 382 362 256
0 0 0 0 0 0 0 0 0 0 0 0 0 0 0 0 0 0 32 0 13 3 78 251 934 1563 1869 2050 1991 1941 1898 1918 1975 2044 1798 1193 548 186 62 34 27 22 33 45 58 78 139 334 243
0 0 0 0 0 0 0 0 9 0 0 0 0 0 0 0 0 0 27 31 14 30 86 205 785 1349 1374 1590 2215 2149 2256 2207 2104 1407 1009 615 110 64 53 77 33 11 15 25 37 24 45 311 276
0 0 0 0 0 0 0 0 0 0 0 5 0 0 0 0 0 0 2 23 13 59 161 248 549 1076 1123 1240 1472 2047 1537 1227 1038 758 632 339 8 0 18 17 16 0 6 21 39 53 168 245 248
0 0 0 0 0 0 0 0 0 0 0 0 7 8 0 0 0 0 0 0 1 39 131 248 384 668 733 747 520 672 638 381 402 231 32 59 17 0 0 0 0 0 4 12 36 135 154 95 32
0 0 0 0 0 0 0 0 0 0 0 0 0 15 7 0 0 0 0 0 0 0 28 182 352 372 268 128 30 0 0 18 33 67 46 18 0 2 1 0 0 0 0 0 0 0 4 71 59
0 0 0 0 0 0 0 0 0 0 0 0 0 12 4 0 0 0 0 0 0 0 13 129 154 42 19 0 0 0 0 0 0 0 0 0 0 0 0 0 0 0 0 0 0 0 0 26 124
0 0 0 0 0 0 0 0 0 0 0 1 17 4 4 0 0 0 0 0 2 3 25 33 29 6 0 0 0 0 0 0 0 0 0 0 0 0 0 0 0 0 0 0 0 0 0 9 140
0 0 0 0 0 0 0 0 0 0 0 0 0 4 9 0 0 0 0 0 12 9 16 27 9 0 0 0 6 1 0 0 0 0 0 1 0 0 0 0 0 8 0 0 0 0 0 29 90
0 0 0 0 0 0 0 0 0 0 0 0 0 5 2 0 0 0 1 0 6 8 3 2 0 0 0 7 7 0 0 0 0 0 0 0 0 0 0 0 0 17 0 0 0 0 0 33 109
0 0 0 0 0 0 0 0 0 0 0 0 0 0 0 0 0 0 0 4 3 11 0 0 0 3 9 9 0 0 1 7 0 0 0 0 0 0 0 0 0 2 0 0 0 0 0 32 83
0 0 0 0 0 0 0 0 0 0 0 0 0 0 0 0 0 0 0 0 13 21 9 0 8 6 43 0 3 6 16 32 18 34 1 0 0 0 17 1 0 0 0 0 0 0 0 28 105
0 0 0 0 0 0 0 0 0 0 0 0 0 0 0 0 0 0 0 0 3 15 8 0 7 23 1 1 3 19 81 80 68 10 0 0 0 5 2 0 0 0 0 4 9 0 0 21 97
0 0 0 0 0 0 0 0 0 0 0 0 0 0 0 0 0 0 0 0 23 26 11 0 0 0 2 0 29 47 135 101 36 34 34 32 10 2 6 4 0 5 15 5 13 0 2 94 116
0 0 0 0 1 0 0 0 0 0 0 0 0 0 0 0 0 0 0 4 20 27 4 0 0 0 0 53 87 105 87 9 0 0 37 28 1 15 16 1 0 31 34 0 0 0 49 86 136
0 0 0 0 0 0 0 0 0 0 0 0 0 0 0 0 0 0 0 2 10 5 0 0 0 0 64 109 59 33 0 0 0 0 0 0 2 25 25 32 0 46 46 0 0 0 10 63 109
0 0 0 2 1 0 0 0 0 0 0 0 0 0 0 0 0 0 0 0 0 0 0 0 0 25 97 56 55 0 0 0 0 0 0 0 0 16 21 25 0 48 15 0 0 0 20 68 60
0 0 0 0 0 0 0 0 0 0 0 0 0 0 0 0 0 0 0 0 0 0 0 0 0 109 78 124 61 0 0 0 0 0 0 0 6 17 39 66 50 14 0 0 0 0 32 57 38
0 0 0 0 0 0 0 0 0 0 0 0 0 0 0 0 0 0 0 0 0 0 0 0 6 136 100 101 8 0 0 0 0 0 7 1 33 49 55 6 0 0 5 8 4 24 43 60 48
0 0 0 0 0 0 0 0 0 0 0 0 0 0 0 0 0 0 0 0 0 0 0 0 18 121 106 31 0 0 0 0 0 10 38 20 45 56 48 45 17 1 1 0 7 19 28 41 62
0 0 0 0 0 0 0 0 0 0 0 0 0 0 0 0 0 0 0 0 0 0 0 0 10 115 130 0 0 0 0 0 10 16 21 45 67 50 41 50 31 36 27 0 4 1 22 31 24
0 0 0 0 0 0 0 0 0 0 0 0 0 0 0 0 0 0 0 0 0 0 0 0 0 33 54 0 0 0 0 8 18 8 20 58 91 57 36 90 64 24 21 0 0 17 14 44 55
0 0 0 0 0 0 0 0 0 0 0 0 0 0 0 0 0 0 0 0 0 0 0 0 0 0 0 0 0 0 0 10 6 8 9 44 71 67 58 49 66 54 48 5 8 8 6 23 20
0 0 0 0 0 0 0 0 0 0 0 0 0 0 0 0 0 0 0 0 0 0 0 0 0 0 0 0 0 0 0 0 0 0 4 34 57 39 60 20 34 68 54 12 1 10 15 11 13
0 0 0 0 0 0 0 0 0 0 0 0 0 0 0 0 0 0 0 0 0 0 0 0 0 0 0 0 0 0 0 0 0 0 12 26 33 57 34 0 9 33 41 34 18 10 83 25 135

GFSSGP_con_mucape_027.txt.gz
CAPE
0 0 0 0 0 0 0 0 0 0 0 0 0 0 0 0 2 0 0 0 1 0 6 696 1276 902 704 662 594 365 246 175 28 0 0 0 0 0 0 0 0 0 0 0 0 0 0 0 0
0 0 0 0 0 0 0 0 7 0 0 0 0 0 0 3 0 0 4 0 5 0 89 227 1354 1084 999 986 948 777 597 325 156 28 3 0 0 0 1 1 4 2 1 0 0 0 1 2 3
0 0 0 0 10 23 0 0 0 0 0 0 0 0 0 0 0 0 9 30 0 3 163 541 1511 1302 1202 1167 1159 1060 907 672 247 51 73 83 50 84 225 117 48 3 7 4 1 6 49 28 14
0 0 0 0 0 2 0 0 0 0 0 0 0 0 0 0 0 0 4 70 0 0 182 538 1556 1508 1427 1344 1310 1163 1101 832 550 284 369 247 224 679 777 413 275 162 72 30 8 210 50 9 17
0 0 0 7 0 0 0 0 0 0 0 0 0 0 0 0 0 0 16 142 60 12 109 364 1564 1752 1717 1617 1523 1404 1370 1213 1139 798 578 603 932 737 640 442 320 310 238 112 62 147 336 351 344
0 0 0 0 0 0 0 0 0 0 0 0 0 0 0 0 0 0 38 248 195 166 178 451 1308 1858 1797 1777 1737 1691 1668 1574 1527 1430 1297 1283 1213 921 696 463 335 271 275 227 146 206 358 304 379
0 0 0 0 0 0 0 0 0 0 0 0 0 0 0 0 0 0 50 250 195 297 284 596 823 1568 1822 1835 1792 1828 1892 1824 1838 1794 1680 1753 1448 1159 479 192 96 55 60 49 63 123 220 259 146
0 0 0 0 0 0 0 0 0 0 0 0 0 0 0 0 0 0 117 144 136 263 392 548 938 1111 1149 1225 2123 2120 2126 2057 2012 1954 1871 1883 1009 522 165 252 46 25 19 23 25 42 274 237 254
0 0 0 0 0 0 0 0 0 0 0 0 0 0 0 0 0 0 68 100 114 202 339 425 511 963 1136 1051 1305 2182 1860 1881 1973 1662 1459 1132 325 135 114 127 105 31 5 2 6 22 88 213 245
0 0 0 0 0 0 0 0 0 0 0 0 0 0 0 1 4 0 12 65 132 212 291 322 525 883 1095 1047 1353 1384 1145 906 1071 860 661 587 346 289 98 78 53 19 0 4 11 10 125 121 263
0 0 0 0 0 0 0 0 0 0 0 0 0 0 15 8 9 1 0 18 37 134 248 323 577 890 1061 959 1047 903 779 770 686 753 790 472 304 347 323 299 102 5 0 13 11 11 15 4 198
0 0 0 0 0 0 0 0 0 0 0 0 0 0 0 0 7 0 0 0 12 46 176 222 479 728 991 696 507 259 180 234 322 365 501 513 463 378 294 91 19 25 0 12 50 59 71 155 294
0 0 0 0 0 0 0 0 0 0 0 0 0 0 0 0 3 0 0 0 0 2 18 71 348 585 546 344 206 158 233 200 197 245 225 243 214 416 340 135 30 29 31 29 43 40 85 126 334
0 0 0 0 0 0 0 0 0 0 0 0 0 0 0 0 0 0 0 0 0 0 0 10 211 344 228 211 271 290 304 240 218 145 163 192 188 210 134 68 78 90 110 78 67 59 83 145 214
0 0 0 0 0 0 0 0 0 0 0 0 0 0 0 0 0 0 0 0 0 0 0 0 88 116 180 208 312 329 265 229 214 261 313 209 279 298 256 205 221 135 119 135 132 107 98 180 308
0 0 0 0 0 0 0 0 0 0 0 0 0 0 0 0 0 0 0 0 0 0 0 0 0 58 182 285 338 261 239 259 239 274 395 360 422 390 409 329 244 141 152 145 133 146 94 203 314
0 0 0 0 0 0 0 0 0 0 0 0 0 0 0 0 0 0 0 0 0 0 0 1 21 53 220 368 245 269 267 306 340 378 408 463 452 336 430 430 122 213 147 170 214 188 144 310 452
0 0 0 0 0 0 0 0 0 0 0 0 0 0 0 0 0 0 0 0 0 0 5 60 110 200 308 265 199 187 215 323 332 433 473 442 400 346 456 210 240 184 201 216 236 315 179 394 612
0 0 0 0 0 0 0 0 0 0 0 0 0 0 0 0 0 0 0 0 0 2 11 100 171 265 208 155 232 253 453 546 497 450 380 337 418 446 346 220 136 131 168 333 359 272 298 515 587
0 0 0 0 0 0 0 0 0 0 0 0 0 0 0 0 0 0 0 0 0 1 8 59 199 192 172 323 300 453 573 475 364 329 360 316 430 503 373 175 23 183 344 387 288 334 318 477 665
0 0 0 0 0 0 0 0 0 0 0 0 0 0 0 0 0 0 0 0 0 0 1 108 164 160 155 352 376 385 198 172 299 268 193 200 105 400 348 95 75 257 457 424 326 347 576 671 657
0 0 0 0 0 0 0 0 0 0 0 0 0 0 0 0 0 0 0 0 0 0 6 73 132 141 338 378 437 477 171 69 135 120 81 173 85 226 394 402 398 463 449 431 283 436 603 734 784
0 0 0 0 0 0 0 0 0 0 0 0 0 0 0 0 0 0 0 0 0 0 3 45 92 364 332 367 343 184 120 53 25 0 107 254 333 243 251 439 464 566 486 394 313 446 566 664 829
0 0 0 0 0 0 0 0 0 0 0 0 0 0 0 0 0 0 0 0 0 0 1 52 227 369 316 348 209 56 18 29 89 205 405 275 293 330 452 270 426 490 421 358 312 357 222 218 764
0 0 0 0 0 0 0 0 0 0 0 0 0 0 0 0 0 0 0 0 0 0 22 89 285 339 298 325 161 23 23 27 148 285 298 325 343 525 560 525 478 390 527 465 432 484 534 580 788
0 0 0 0 0 0 0 0 0 0 0 0 0 0 0 0 0 0 0 0 0 8 33 69 274 384 303 287 181 108 83 112 154 286 327 349 404 530 560 506 506 489 401 341 473 499 512 532 712
0 0 0 0 0 0 0 0 0 0 0 0 0 0 0 0 0 0 0 0 0 10 67 194 230 343 370 268 188 172 145 271 421 299 342 448 565 527 521 587 498 504 414 362 444 374 519 598 629
0 0 0 0 0 0 0 0 0 0 0 0 0 0 0 0 0 0 0 0 0 4 98 140 217 258 309 212 136 159 192 216 94 239 157 457 581 617 490 596 617 547 384 318 417 398 487 585 583
0 0 0 0 0 0 0 0 0 0 0 0 8 0 0 0 0 0 0 0 0 1 4 73 105 69 156 141 54 145 220 98 42 243 165 429 629 561 499 470 539 512 372 344 407 421 296 304 96
0 0 0 0 0 0 0 0 0 0 0 0 0 0 0 0 0 0 0 0 0 0 0 50 64 23 82 68 7 179 171 42 94 253 248 455 553 413 428 338 416 73 41 92 161 46 66 53 58

GFSSGP_con_mucape_030.txt.gz
CAPE
0 0 0 0 0 0 0 28 24 0 0 0 0 0 0 0 0 0 0 113 106 0 104 593 1085 918 696 652 497 398 277 162 0 0 0 0 0 0 0 0 0 0 0 0 0 0 0 0 0
0 0 0 0 0 11 14 113 21 0 0 0 0 0 0 0 0 0 3 94 84 2 137 215 1220 1003 926 910 825 686 576 318 88 3 0 0 0 0 0 0 0 0 0 0 0 0 4 4 3
0 0 0 29 131 119 104 61 29 0 0 0 0 0 0 0 0 0 42 142 119 35 134 302 1384 1148 1130 1147 1139 990 817 593 198 106 58 29 13 8 94 57 80 44 3 1 0 2 7 105 79
0 0 0 0 0 9 119 37 0 0 0 0 0 0 0 0 0 0 53 156 95 43 128 433 1511 1373 1338 1327 1390 1287 1111 785 537 261 227 166 126 353 633 255 344 303 105 33 2 0 29 251 3
0 0 0 0 0 0 33 19 0 0 0 0 0 0 0 0 0 0 66 150 71 100 116 409 1660 1641 1649 1572 1555 1507 1427 1231 1112 695 479 474 694 949 762 716 579 448 346 320 217 102 266 238 215
0 0 0 0 0 0 0 0 0 0 0 0 0 0 0 0 0 0 16 215 88 90 194 496 1611 1825 1773 1747 1688 1601 1490 1461 1376 1333 1264 1255 1324 1378 957 840 606 455 367 356 337 310 582 419 369
0 0 0 0 0 0 0 0 0 0 0 0 0 0 0 0 0 0 0 109 230 147 216 592 1111 1633 1917 1836 1768 1730 1639 1662 1659 1683 1652 1698 1592 1423 979 785 436 220 153 178 204 253 369 348 239
0 0 0 0 0 0 0 0 0 0 0 0 0 1 14 41 4 0 12 21 237 229 264 347 956 989 1120 1206 1957 1941 1954 1971 1941 1979 1980 1968 1623 1310 694 638 262 105 80 63 83 123 151 389 452
0 0 0 0 0 1 0 0 0 0 0 0 0 0 0 3 5 29 54 68 87 137 310 300 549 769 1018 921 1138 1993 1863 1912 1996 1706 1686 1706 763 406 438 459 176 204 60 35 7 7 42 123 243
0 0 0 0 0 0 0 0 0 0 0 0 0 0 1 12 50 75 88 72 99 162 204 313 557 856 975 670 923 1636 1080 1139 977 932 1086 1065 672 529 393 344 178 181 110 45 0 8 20 116 285
0 0 0 0 0 0 0 0 0 0 0 0 0 1 18 10 21 44 100 109 50 109 191 242 747 980 1082 879 1005 1335 1185 985 984 1137 1076 810 614 503 544 529 376 532 315 194 76 72 63 28 70
0 0 0 0 0 0 0 0 0 0 0 0 0 0 0 0 8 2 4 87 75 44 160 301 512 1125 1404 989 1030 1067 842 738 688 563 776 968 834 749 700 582 397 672 220 185 127 28 62 70 78
0 0 0 0 0 6 2 1 0 0 0 0 0 0 0 0 0 0 0 0 111 53 135 320 620 1184 1516 1511 1099 905 563 362 403 396 557 785 623 691 698 699 542 599 164 49 124 50 50 103 107
0 0 0 0 0 1 0 0 0 0 0 0 0 0 0 0 0 0 0 0 86 120 116 279 644 1223 1473 1743 1206 786 634 412 502 342 526 756 767 765 750 677 618 480 343 276 412 82 90 100 123
0 0 0 0 0 0 0 0 0 0 0 0 0 0 0 0 0 0 0 0 69 163 175 314 610 1128 1498 1306 969 671 490 500 356 437 778 831 921 862 907 793 648 689 595 652 660 172 168 177 168
0 0 0 0 0 0 0 0 0 0 0 0 0 0 0 0 0 0 0 0 62 177 175 249 277 882 1247 1120 781 519 467 477 407 593 764 945 1001 1097 1031 868 556 861 629 731 760 310 167 135 328
0 0 0 0 1 0 0 0 0 0 0 0 0 0 0 0 0 0 0 1 61 121 164 162 299 667 919 763 643 636 637 533 494 711 807 834 1010 997 986 914 926 802 641 730 513 330 222 564 417
0 0 0 3 22 0 0 0 0 0 0 0 0 0 0 0 0 0 0 0 2 52 103 154 260 547 701 677 652 537 455 434 626 794 791 872 1091 909 778 865 843 987 610 601 569 280 472 397 782
0 0 0 0 0 0 0 0 0 0 0 0 0 0 0 0 0 0 0 0 0 13 89 196 338 635 600 559 446 422 313 478 728 791 888 842 935 712 1006 1102 820 593 517 540 285 805 525 565 854
0 0 0 0 1 0 0 0 4 2 0 0 0 0 0 0 0 0 0 0 12 63 167 311 459 697 584 481 426 300 469 599 620 663 776 828 841 605 774 799 708 434 231 363 475 571 924 686 958
0 0 0 0 0 1 0 0 0 0 0 0 0 0 0 0 0 9 0 24 45 113 265 348 574 674 558 521 571 850 765 601 545 664 709 781 713 651 739 508 543 144 352 596 805 757 531 891 1031
0 0 0 0 0 0 0 0 0 0 0 0 0 0 0 0 0 17 22 54 117 180 253 446 561 665 606 591 578 558 320 265 340 356 443 556 592 553 560 602 434 484 636 754 743 734 735 926 1068
0 0 0 0 0 0 0 0 0 0 0 0 0 0 0 0 0 22 51 108 101 164 301 460 573 447 627 689 620 618 369 361 366 296 610 898 761 492 479 602 713 643 1042 829 649 506 788 858 1129
0 0 0 0 0 0 0 0 0 0 10 0 0 0 0 28 20 54 67 73 140 182 303 426 411 636 701 834 768 529 593 454 486 542 834 878 813 839 675 590 686 802 837 648 580 664 773 1016 1037
0 0 0 0 0 0 0 0 0 0 0 0 0 0 25 43 100 119 95 121 157 197 268 298 454 604 738 760 626 538 632 650 718 677 612 728 871 926 717 691 687 837 768 634 594 711 759 594 970
0 0 0 0 0 0 0 0 0 0 0 0 0 0 13 56 168 185 136 186 167 182 233 224 419 450 573 572 570 596 709 582 615 600 641 548 959 735 757 772 745 732 723 762 854 1064 1074 1078 1076
0 0 0 0 0 0 0 0 0 0 0 0 0 0 4 101 220 197 191 202 169 231 284 353 342 303 411 485 549 697 691 664 533 695 748 902 826 632 682 724 685 693 666 711 877 1027 965 1044 1016
0 0 0 0 0 0 0 0 0 0 0 0 0 0 0 190 191 190 217 194 195 266 361 337 164 285 420 496 415 554 591 497 403 632 579 735 807 525 640 675 711 690 678 680 822 918 904 915 890
0 0 0 0 0 0 0 0 0 0 0 0 6 17 212 212 189 200 179 176 207 268 306 156 189 330 445 405 354 463 551 400 373 542 446 755 824 663 483 571 604 619 693 724 768 707 714 707 811
0 0 0 0 0 0 0 0 0 0 13 0 10 240 225 180 180 155 133 148 216 274 153 100 153 147 282 225 143 353 504 310 451 503 519 591 681 598 391 452 512 429 516 660 633 436 410 522 550

GFSSGP_con_mucape_036.txt.gz
CAPE
1 0 0 0 0 0 0 0 0 91 13 0 0 0 0 0 0 0 18 20 189 408 92 166 514 416 391 273 230 154 124 80 25 0 0 0 0 0 0 0 0 0 0 0 0 0 0 0 0
0 0 0 0 0 0 0 2 25 0 0 0 0 0 0 3 0 0 4 10 143 684 223 105 657 644 708 574 506 389 316 182 112 58 8 0 0 0 0 0 0 0 0 0 0 0 0 4 1
0 0 0 0 0 0 8 11 55 2 1 0 0 0 0 0 0 2 117 55 111 963 437 173 809 757 846 771 720 606 521 365 233 91 81 45 23 0 0 0 0 0 19 44 27 28 13 3 13
0 0 0 0 3 40 55 67 66 4 5 0 0 0 0 0 0 0 0 8 0 244 559 797 788 858 969 1017 945 794 706 596 444 246 291 221 110 194 242 96 48 54 67 128 176 143 134 116 290
0 0 0 0 0 0 0 14 37 27 1 0 4 0 0 0 0 0 16 19 14 0 372 1128 911 1021 1145 1194 1135 989 894 760 687 626 540 465 439 456 492 348 260 362 444 321 298 330 343 341 444
0 0 0 0 0 0 0 2 2 10 0 0 4 2 5 5 4 0 0 68 11 49 169 1549 1150 1060 1148 1334 1333 1106 1029 940 910 901 867 765 766 840 795 773 781 861 598 396 437 283 534 439 375
0 0 0 0 0 0 1 10 1 2 1 18 8 0 0 3 35 59 24 86 121 93 105 1941 1389 1212 1386 1376 1374 1309 1211 1187 1222 1202 1151 1098 1190 1192 1146 1240 1096 1098 799 588 235 169 268 488 601
0 0 0 0 0 0 0 0 0 0 0 3 0 2 0 62 33 37 8 47 92 124 71 1798 1764 1226 1093 1158 1622 1624 1511 1549 1523 1507 1482 1452 1404 1291 1366 1341 1526 1157 904 406 198 177 144 399 536
0 0 0 0 0 0 0 0 0 0 0 1 0 0 0 0 6 0 13 4 5 76 203 226 1798 1891 1332 769 1176 1821 1595 1670 1678 1648 1604 1524 863 554 916 1031 1268 1197 967 537 405 217 226 205 168
0 0 0 0 0 0 3 0 0 0 1 0 5 0 1 5 1 5 17 4 0 0 45 238 265 1268 1562 852 807 1430 1328 1242 1211 867 952 1107 831 972 963 588 1754 1130 1116 660 508 398 304 125 1
0 0 0 0 0 1 0 0 4 13 20 13 33 45 9 0 29 7 0 0 0 1 6 178 493 955 1193 720 817 1633 1299 1036 873 863 1058 1358 1385 1507 1072 693 780 775 842 478 641 420 242 165 87
0 0 0 0 0 12 1 0 1 1 16 24 49 37 17 0 6 1 0 0 0 0 77 85 755 1586 1073 828 979 1737 1617 1220 998 1053 1617 1619 1896 1592 1225 977 1256 716 743 850 926 442 421 324 585
0 0 0 0 2 0 11 0 1 5 6 4 0 7 1 13 9 0 0 3 4 12 57 208 1197 1406 1949 2010 1086 1313 1613 1490 1324 1578 1738 1743 1462 1221 1579 1502 1374 1239 1088 962 654 647 582 419 236
0 0 0 0 0 0 0 0 0 0 4 2 0 0 2 34 14 0 29 119 225 102 277 598 1813 1893 2052 1393 2499 2120 2264 1948 1658 1511 1454 1513 1361 1484 1467 1814 1463 1210 1405 1137 909 709 533 478 221
0 0 0 0 0 2 27 0 8 4 4 0 0 5 17 28 3 1 29 290 187 293 853 1473 2091 2547 2233 2437 2140 3555 2440 2180 1448 1192 1721 1566 1474 1648 1882 1650 1499 1144 1365 1099 976 830 618 520 335
0 0 0 0 0 0 34 0 0 0 1 0 0 6 36 41 17 26 6 141 210 795 1150 1883 360 2679 2635 2747 2529 2200 2256 1797 1783 1290 1475 1391 1824 1702 1866 1515 1250 1279 1376 1220 829 668 577 539 468
0 0 0 0 0 0 20 1 0 4 4 1 5 0 11 0 29 43 234 112 401 1355 1841 1773 1742 2362 2570 3011 2698 2473 2503 1270 1191 1555 1374 1644 1535 1611 1528 1239 1408 1416 1161 936 923 661 717 558 431
0 0 0 0 0 0 12 9 0 20 38 38 44 4 0 0 16 2 260 184 795 760 972 1876 2412 2598 2539 2558 2694 2125 1689 1539 1642 1416 1332 1716 1784 1632 1363 1317 1526 1310 1101 988 604 704 660 468 60
0 0 0 0 0 1 12 1 0 4 48 5 3 3 0 0 17 84 188 635 852 842 1543 2511 2370 2629 2314 2308 1863 1487 1145 1350 1150 1319 1488 1495 1539 1357 1532 1370 1363 939 967 665 622 625 606 366 451
0 0 0 0 0 0 21 9 1 26 4 8 25 3 0 0 107 182 435 1106 1156 1434 1835 1850 1801 2691 2209 2045 1630 1248 1174 953 1054 1183 1693 1554 1438 1540 1338 1436 1191 879 972 623 604 669 404 389 683
0 0 0 0 0 0 0 1 1 0 6 23 5 0 10 16 0 0 461 1133 1066 1230 1406 1423 1848 2192 1960 1762 1662 2413 1868 1920 1608 1330 1269 1519 1123 1164 1504 1245 1002 915 903 645 473 693 529 603 598
0 0 0 0 0 0 0 4 0 0 0 5 5 9 13 0 6 86 540 1152 1164 995 1089 1363 1806 1788 1758 2262 1802 1910 1466 1139 1292 1542 1237 1478 1298 1148 1230 1105 778 854 782 778 752 786 544 673 305
0 0 0 0 0 2 0 1 0 0 0 0 0 0 0 0 83 176 985 1154 955 1065 1135 1388 1645 1529 1901 1858 1668 1922 1806 1675 1499 1220 1332 1437 1397 866 889 907 836 952 927 846 780 966 529 600 581
0 0 0 0 0 14 0 0 0 0 0 0 0 0 0 55 69 172 1050 1005 981 991 1162 1463 1439 1672 1569 1650 2256 1957 1863 1554 1517 1363 1328 1277 1525 1442 985 864 868 1001 1027 803 1008 840 813 740 845
0 3 0 0 0 0 0 0 0 0 0 0 0 0 0 86 106 815 1018 907 943 1056 1280 1344 1329 1426 1415 1544 1567 1368 1509 1083 1098 1259 1370 1256 1314 1184 905 929 906 1080 710 858 949 795 771 882 946
0 0 0 0 0 0 0 0 0 0 0 0 1 0 20 56 807 947 965 938 891 1116 1162 1095 1215 1275 1266 1265 1268 1422 1479 1194 1396 1516 1260 1140 1169 1164 956 1077 887 780 879 703 772 975 628 661 833
0 0 0 1 0 0 0 0 0 0 0 0 0 7 48 642 935 954 901 926 930 1077 1121 1078 1207 1175 1161 1175 1377 1295 1366 1294 1327 1496 1429 917 1401 1123 1029 834 700 769 672 771 915 538 577 562 663
0 0 0 5 0 0 0 0 2 34 53 22 15 11 95 839 855 825 885 958 1023 1048 1157 1296 1236 1153 1031 981 1008 938 1356 496 815 984 1214 1053 1034 583 789 732 841 732 651 753 606 612 716 514 321
0 0 0 0 0 0 0 0 83 219 27 0 0 0 96 810 826 877 782 1010 990 933 975 1221 1073 870 778 911 1113 942 1190 686 1017 1126 1081 1147 1030 695 827 863 865 639 613 746 761 521 614 419 428
19 4 5 0 0 2 0 0 49 1 0 0 9 0 392 766 772 777 826 867 864 907 962 1045 830 501 572 660 735 854 619 889 982 1115 1021 1169 1049 654 545 406 264 664 723 661 615 786 409 484 243

GFSSGP_con_mucape_042.txt.gz
CAPE
0 0 0 0 0 0 0 0 0 2 0 0 0 0 0 0 0 0 0 46 54 0 143 422 669 555 463 382 279 150 87 77 26 0 0 0 0 0 0 0 0 0 0 0 0 0 0 0 0
0 0 0 0 0 0 0 0 3 3 0 0 0 0 0 0 0 0 52 66 15 0 6 81 735 656 639 519 399 228 136 102 61 20 2 0 0 0 0 0 0 0 0 0 0 0 0 0 0
0 0 0 0 0 0 0 1 16 20 19 0 0 0 0 0 0 0 0 70 0 0 0 13 792 716 726 656 533 329 223 186 97 33 28 11 0 0 0 0 0 0 0 0 0 0 0 0 0
0 0 0 0 0 0 0 11 16 29 0 0 6 0 0 0 0 0 112 18 0 0 0 163 798 786 824 749 599 400 340 288 200 117 114 95 30 103 141 23 33 24 17 58 115 137 123 113 103
0 0 0 0 0 1 19 0 0 2 0 0 0 0 0 0 1 242 163 10 0 0 0 78 903 933 970 849 689 570 524 444 440 368 352 246 264 228 141 125 138 130 149 179 238 227 304 342 415
0 0 0 0 0 1 0 0 1 21 1 0 0 3 0 0 46 302 243 86 0 0 0 0 794 873 938 975 880 695 644 568 582 576 534 510 555 552 355 263 205 227 335 435 463 406 656 548 370
0 0 0 0 0 0 8 0 0 0 7 0 0 0 0 0 0 176 246 145 55 0 0 0 92 586 1243 1192 1066 950 749 663 708 696 709 771 832 876 849 693 494 474 628 751 675 805 701 611 488
0 0 0 0 0 0 0 0 0 0 0 0 0 0 0 0 0 0 77 65 176 99 0 12 22 169 382 588 1277 1114 889 838 794 875 932 964 1088 1065 1027 988 1070 842 961 1039 1114 1002 838 704 738
0 0 0 0 0 0 0 0 0 0 0 0 0 0 0 1 0 0 0 0 76 167 106 166 114 49 175 287 704 1194 1132 1073 993 948 1094 908 709 670 720 969 1019 1107 1333 1341 1467 1257 947 781 480
0 0 0 0 0 0 0 0 0 0 0 0 0 3 0 0 1 9 1 0 2 32 250 304 216 124 114 155 296 634 565 530 558 526 568 713 665 527 730 874 1291 1262 1609 1756 1609 1344 942 627 294
0 0 0 0 0 0 0 0 0 0 0 0 0 0 0 0 0 1 0 0 0 0 127 429 303 219 124 85 236 563 506 430 542 551 500 659 553 471 571 537 609 993 1425 1172 1242 979 809 544 303
0 0 0 0 0 0 0 0 0 0 0 0 0 0 0 0 0 0 0 0 0 0 23 525 430 331 246 112 167 335 436 450 525 581 545 533 511 376 319 346 671 726 1047 1277 948 720 557 460 324
0 0 0 0 0 0 0 0 0 0 0 0 0 0 0 0 0 0 0 0 0 0 0 232 498 412 334 219 233 296 393 393 484 560 500 463 433 303 253 341 883 719 752 940 893 490 299 309 280
0 0 0 0 0 0 0 0 0 0 0 0 0 0 0 1 0 0 0 0 0 0 0 0 440 492 435 335 286 383 402 329 344 416 404 411 364 396 459 837 959 965 511 596 512 348 334 408 230
0 0 0 0 0 0 0 0 0 0 0 0 0 0 0 0 0 0 0 0 0 0 0 0 1 483 646 523 418 444 510 499 429 393 454 621 583 531 628 856 845 625 728 571 387 496 357 343 155
0 0 0 0 0 0 0 0 0 0 0 0 0 0 0 0 0 0 0 0 0 0 0 0 25 171 593 625 549 592 679 708 655 616 677 893 814 715 859 1122 535 611 607 586 498 454 276 229 160
0 0 0 0 0 0 0 0 0 0 0 0 0 0 0 0 0 0 0 0 0 0 0 0 253 345 391 525 502 658 817 902 882 857 997 1026 990 944 1207 775 500 548 568 539 465 430 404 292 157
0 0 0 0 0 0 0 0 0 0 0 0 0 0 0 0 0 0 0 0 0 0 0 0 465 623 721 712 1044 872 980 1058 1194 1279 1233 1039 1121 1200 479 511 612 637 592 590 604 473 349 185 113
0 0 0 0 0 0 0 0 0 0 0 0 0 0 0 0 0 0 0 0 0 40 124 96 878 1012 1170 950 1291 1172 1135 1051 960 865 806 660 647 417 418 498 607 589 572 639 483 351 222 127 117
0 0 0 0 0 0 0 0 0 0 0 0 0 0 0 0 0 0 0 0 31 173 498 707 1171 1431 1434 1317 1129 1105 1085 1055 999 922 881 916 865 568 551 666 800 650 681 534 314 250 160 124 75
0 0 0 0 0 0 0 0 0 0 0 0 0 0 0 0 0 0 0 19 105 367 603 975 1369 1599 1589 1542 1384 1208 1131 1026 1012 999 786 565 535 584 768 726 538 501 472 375 269 260 165 100 50
0 0 0 0 0 0 0 0 0 0 0 0 0 0 0 0 0 0 0 6 226 455 749 1486 1509 1686 1641 1513 1438 1379 1260 1116 743 383 347 397 553 595 634 578 402 342 300 341 291 272 231 100 51
0 0 0 0 0 0 0 0 0 0 0 0 0 0 0 0 0 0 0 52 272 552 579 1226 1600 1599 1558 1396 1228 1030 655 553 479 395 428 579 569 626 594 451 325 346 396 301 259 165 230 153 64
0 0 0 0 0 0 0 0 0 0 0 0 0 0 0 0 0 0 16 230 460 537 877 1249 1332 1258 1275 995 706 559 612 392 291 322 364 415 416 417 379 425 355 325 348 271 137 137 122 157 116
0 0 0 0 0 0 0 0 0 0 0 0 0 0 0 0 0 140 263 400 456 755 1042 1178 1117 928 694 559 454 407 328 270 257 277 266 341 336 258 286 350 305 188 234 246 215 133 154 114 104
0 0 0 0 0 0 0 0 0 0 0 0 0 0 0 0 16 238 338 439 556 737 847 857 742 747 718 463 373 298 280 207 229 157 209 336 302 170 89 144 122 81 157 136 115 54 61 86 97
0 0 0 0 0 0 0 0 0 0 0 0 0 0 0 0 166 319 390 468 623 719 704 678 696 606 540 449 352 306 271 168 210 188 376 378 130 30 140 6 8 36 96 138 27 14 5 128 161
0 0 0 0 0 0 0 0 0 0 0 0 0 0 0 161 291 380 416 559 679 712 636 767 638 522 430 341 201 125 145 312 258 292 346 119 276 174 35 48 7 74 0 2 0 19 59 77 67
0 0 0 0 0 0 0 0 0 0 0 0 0 0 86 328 360 453 484 629 702 634 767 688 457 493 321 175 95 86 91 134 29 127 197 159 178 124 38 52 122 25 114 46 24 24 0 17 31
0 0 0 0 0 0 0 0 0 0 0 0 0 28 281 401 468 520 551 652 627 613 695 563 474 491 244 131 64 93 132 61 69 291 231 0 0 7 101 186 90 0 21 183 34 38 0 3 44

GFSSGP_con_mucape_045.txt.gz
CAPE
0 0 0 0 0 0 0 0 0 0 0 2 0 0 0 0 0 0 0 2 17 0 215 736 875 596 368 358 229 116 52 29 5 0 0 0 0 0 0 0 0 0 0 0 0 0 0 0 0
0 0 0 0 0 0 0 0 0 1 0 0 0 0 0 0 0 0 0 3 38 0 209 277 831 620 607 513 391 271 116 79 61 29 4 0 0 0 0 0 0 0 0 0 0 0 0 0 0
0 0 0 0 0 0 0 2 23 1 0 0 6 0 0 0 0 0 0 15 52 0 74 101 863 734 712 660 551 382 215 185 57 34 47 36 7 12 0 0 0 0 0 0 0 0 0 3 2
0 0 0 0 0 0 0 0 0 0 0 0 0 0 0 0 0 0 14 27 9 0 0 85 886 921 846 813 674 478 347 248 158 92 80 83 33 83 95 13 0 0 1 59 104 129 113 111 100
0 0 0 0 0 0 0 0 0 0 0 0 0 0 0 0 0 52 22 17 0 0 0 0 938 964 1032 959 767 598 501 417 350 278 154 131 165 153 110 74 77 69 76 140 243 288 345 445 409
0 0 0 0 0 0 5 0 0 0 0 0 0 0 0 0 14 89 30 10 0 0 0 0 796 939 1080 1087 960 703 568 495 489 487 394 354 397 296 160 149 178 216 250 310 364 443 431 655 487
0 0 0 0 0 0 0 0 0 0 0 0 0 0 0 0 0 149 50 25 0 0 0 0 182 567 1119 1094 1001 853 699 621 643 668 600 570 604 618 436 392 307 316 390 513 652 608 729 819 529
0 0 0 0 0 0 0 0 0 0 0 0 0 0 0 0 25 98 143 82 3 0 0 0 4 165 301 476 1181 1089 952 798 808 845 767 705 802 882 683 781 787 461 592 760 947 933 998 993 775
0 0 0 0 0 0 0 0 0 0 0 0 0 0 0 0 0 0 129 146 99 28 0 0 0 1 90 148 427 1140 961 949 915 883 919 716 492 588 569 699 772 666 748 928 1214 1488 1349 1067 589
0 0 0 0 0 0 0 0 0 0 0 0 0 0 0 0 0 0 14 67 60 103 95 2 15 3 44 121 120 494 454 407 468 453 483 547 529 499 559 594 830 896 985 1399 1671 1752 1291 822 448
0 0 0 0 0 0 0 0 0 0 0 0 0 0 0 0 0 0 0 0 1 39 92 179 62 34 28 46 76 214 369 302 375 373 362 545 472 457 572 614 708 908 1158 1113 1205 1429 1142 695 483
0 0 0 0 0 0 0 0 0 0 0 0 0 0 0 0 0 0 0 0 0 0 0 133 151 83 54 47 56 101 246 199 217 273 350 382 430 378 392 487 432 443 693 1133 1168 1085 831 678 458
0 0 0 0 0 0 0 0 0 0 0 0 0 0 0 0 0 0 0 0 0 0 0 0 195 223 165 101 99 106 205 199 157 242 366 285 341 262 250 260 235 197 666 786 1035 1081 813 513 270
0 0 0 0 0 0 0 0 0 0 0 0 0 0 0 0 0 2 0 0 0 0 0 0 187 261 250 265 197 162 194 232 198 288 379 352 276 228 205 146 125 172 845 775 778 888 815 372 241
0 0 0 0 0 0 0 0 0 0 0 0 0 0 0 0 0 0 0 0 0 0 0 0 13 243 309 336 315 286 243 281 267 319 426 395 367 316 282 345 91 560 942 739 566 648 501 308 314
0 0 0 0 0 0 0 0 0 0 0 0 0 0 0 0 0 0 0 0 0 0 0 0 0 215 317 341 358 327 350 358 348 333 404 473 471 554 647 326 288 879 623 573 691 428 332 434 339
0 0 0 0 0 0 0 0 0 0 0 0 0 0 0 0 0 0 0 0 0 0 0 0 0 9 283 421 418 432 452 525 549 569 644 611 670 799 699 537 622 742 550 594 569 563 329 431 277
0 0 0 0 0 0 0 0 0 0 0 0 0 0 0 0 0 0 0 0 0 0 0 0 0 12 72 385 557 552 631 723 829 906 807 837 944 1038 948 684 960 741 497 546 566 551 527 370 270
0 0 0 0 0 0 0 0 0 0 0 0 0 0 0 0 0 0 0 0 0 0 0 0 1 91 183 307 492 584 780 913 1026 1027 996 1239 1245 1169 1010 950 880 466 547 524 489 518 467 342 231
0 0 0 0 0 0 0 0 0 0 0 0 0 0 0 0 0 0 0 0 0 0 0 0 32 353 529 686 694 789 867 1036 1204 1304 1336 1352 1097 1077 1163 611 322 540 583 585 536 416 283 185 139
0 0 0 0 0 0 0 0 0 0 0 0 0 0 0 0 0 0 0 0 0 0 0 53 344 719 880 963 1128 1180 1174 1124 1085 1079 1044 1002 775 1134 435 268 469 646 643 481 381 221 154 136 86
0 0 0 0 0 0 0 0 0 0 0 0 0 0 0 0 0 0 0 0 0 0 91 481 855 1161 1210 1103 1158 1178 1153 1129 1022 985 948 881 563 379 376 527 610 459 361 365 279 228 242 163 118
0 0 0 0 0 0 0 0 0 0 0 0 0 0 0 0 0 0 0 0 0 36 326 874 1182 1385 1421 1401 1338 1274 1154 1019 941 864 370 297 406 563 611 672 498 324 226 240 269 162 190 173 84
0 0 0 0 0 0 0 0 0 0 0 0 0 0 0 0 0 0 0 0 8 175 894 1147 1441 1464 1475 1407 1284 1163 1066 917 538 376 335 422 450 491 530 476 352 225 201 145 82 92 75 115 86
0 0 0 0 0 0 0 0 0 0 0 0 0 0 0 0 0 0 0 7 95 356 893 1260 1412 1397 1321 1181 1057 806 530 443 424 403 382 440 361 293 290 272 334 159 45 115 81 23 44 43 80
0 0 0 0 0 0 0 0 0 0 0 0 0 0 0 0 0 0 0 55 221 461 798 1093 1301 1253 1083 742 493 414 517 392 236 215 224 219 189 112 110 192 186 38 2 31 57 36 35 64 48
0 0 0 0 0 0 0 0 0 0 0 0 0 0 0 0 0 0 55 132 363 574 814 939 906 715 449 445 279 259 232 196 145 155 169 152 130 33 0 18 3 0 0 0 2 0 3 15 39
0 0 0 0 0 0 0 0 0 0 0 0 0 0 0 0 0 17 149 291 444 653 845 816 637 499 314 247 208 181 137 110 136 115 178 165 54 2 27 0 0 0 0 3 0 0 0 59 85
0 0 0 0 0 0 0 0 0 0 0 0 0 0 0 0 7 154 279 408 464 562 612 552 499 456 319 244 191 48 156 146 95 50 80 54 46 0 0 2 0 2 0 0 0 0 13 14 40
0 0 0 0 0 0 0 0 0 0 0 0 6 0 0 7 124 275 432 489 503 466 497 462 369 274 248 69 8 39 74 62 9 86 73 13 18 10 0 1 47 20 0 11 43 12 0 17 30

GFSSGP_con_mucape_048.txt.gz
CAPE
0 0 0 0 0 0 0 0 0 0 0 0 0 0 7 0 0 0 0 0 0 0 328 646 984 746 618 551 377 257 140 78 55 34 13 0 0 0 0 0 0 0 0 0 0 0 0 0 0
0 0 0 0 0 0 0 0 0 0 0 0 0 0 0 0 0 0 0 0 0 3 297 328 974 842 787 634 545 359 218 129 112 62 26 17 12 0 0 0 0 0 0 0 0 0 0 0 0
0 0 0 0 0 0 0 0 0 0 0 0 0 0 0 0 0 0 0 0 0 10 212 220 1040 821 831 709 650 481 284 211 107 41 37 26 34 51 32 0 0 0 0 0 0 0 0 0 0
0 0 0 0 0 0 3 0 0 0 0 0 0 0 0 0 0 0 0 0 0 1 142 269 1066 830 859 830 699 587 404 260 192 114 118 92 61 111 128 37 16 11 21 32 58 84 86 96 72
0 0 0 0 0 0 0 0 0 0 0 0 0 0 0 0 0 0 0 0 0 0 30 109 1094 892 1015 1082 882 727 536 383 331 277 174 169 180 165 124 63 52 61 69 92 156 257 298 362 363
0 0 0 0 0 0 0 0 0 0 0 0 0 0 0 0 0 0 0 0 0 0 0 2 1100 1071 1039 1296 1098 857 637 470 437 428 319 277 304 248 165 110 115 123 149 208 338 368 495 623 460
0 0 0 0 0 0 0 0 0 0 0 0 0 0 0 0 0 7 0 3 0 0 0 0 409 739 1202 1235 1171 958 741 606 559 521 454 452 503 462 373 297 206 252 341 414 493 610 801 824 597
0 0 0 0 0 0 0 0 0 0 0 0 0 0 0 0 0 61 9 2 0 0 0 0 13 245 513 653 1361 1156 950 801 719 683 687 652 703 663 563 521 621 389 464 583 736 940 1105 1089 973
0 0 0 0 0 0 0 0 0 0 0 0 0 0 0 0 0 38 95 35 1 0 0 0 0 26 105 261 529 1296 1002 1004 939 929 919 617 344 426 363 550 583 563 586 769 1029 1365 1436 1307 909
0 0 0 0 0 0 0 0 0 0 0 0 0 0 0 0 0 0 2 4 5 36 24 0 0 0 7 49 113 479 468 357 454 417 459 393 302 325 413 522 693 610 876 1098 1420 1670 1567 1138 664
0 0 0 0 0 0 0 0 0 0 0 0 0 0 0 0 0 0 0 0 0 10 45 59 15 29 8 32 47 104 349 279 342 333 348 392 314 336 559 442 574 654 1002 757 1181 1456 1432 996 613
0 0 0 0 0 0 0 0 0 0 0 0 0 0 0 0 0 0 0 0 0 2 8 26 106 87 44 48 59 66 181 213 225 276 286 292 284 236 316 412 347 534 739 946 972 918 1123 1001 599
0 0 0 0 0 0 0 0 0 0 0 0 0 0 0 0 0 0 0 0 0 0 0 0 44 80 112 102 73 91 110 188 124 214 258 196 220 150 219 287 271 232 310 412 714 887 932 894 605
0 0 0 0 0 0 0 0 0 0 0 0 0 0 0 0 0 0 0 0 0 0 0 0 0 46 84 96 122 136 113 108 133 119 185 198 169 115 151 182 161 155 106 123 663 728 881 886 714
0 0 0 0 0 0 0 0 0 0 0 0 0 0 0 0 0 0 0 0 0 0 0 0 0 5 49 96 133 154 151 134 109 117 185 233 194 184 204 244 159 131 99 67 778 691 706 768 700
0 0 0 0 0 0 0 0 0 0 0 0 0 0 0 0 0 0 0 0 0 0 0 0 0 0 18 101 142 186 196 201 185 189 251 305 256 335 398 357 380 307 190 122 819 496 533 618 349
0 0 0 0 0 0 0 0 0 0 0 0 0 0 0 0 0 0 0 0 0 0 0 0 0 0 3 86 186 239 270 290 325 361 366 379 421 540 544 617 709 533 153 739 570 544 685 462 186
0 0 0 0 0 0 0 0 0 0 0 0 0 0 0 0 0 0 0 0 0 0 0 0 0 0 0 91 215 302 357 384 446 501 517 589 733 652 709 867 777 566 606 713 535 552 581 566 417
0 0 0 0 0 0 0 0 0 0 0 0 0 0 0 0 0 0 0 0 0 0 0 0 0 0 0 108 264 363 480 495 597 675 795 919 787 867 977 1085 739 695 908 668 469 561 571 518 364
0 0 0 0 0 0 0 0 0 0 0 0 0 0 0 0 0 0 0 0 0 0 0 0 0 0 0 49 190 383 454 598 771 874 982 958 1041 1174 1214 1081 717 885 885 486 527 495 368 259 193
0 0 0 0 0 0 0 0 0 0 0 0 0 0 0 0 0 0 0 0 0 0 0 0 0 0 17 110 292 474 592 753 896 1035 1091 1239 1369 1349 1064 948 989 775 434 526 378 242 145 212 132
0 0 0 0 0 0 0 0 0 0 0 0 0 0 0 0 0 0 0 0 0 0 0 0 7 60 268 450 508 648 841 967 1064 1188 1190 1231 1065 929 989 988 504 295 467 342 212 169 177 154 136
0 0 0 0 0 0 0 0 0 0 0 0 0 0 0 0 0 0 0 0 0 0 0 28 275 513 652 732 845 905 921 970 990 1024 988 951 657 298 932 494 347 492 324 200 141 143 108 110 80
0 0 0 0 0 0 0 0 0 0 0 0 0 0 0 0 0 0 0 0 0 0 16 396 750 936 954 966 1029 1025 1077 1059 1022 935 826 284 223 336 368 474 617 491 180 88 53 3 0 28 45
0 0 0 0 0 0 0 0 0 0 0 0 0 0 0 0 0 0 0 0 0 3 301 704 1023 1126 1158 1231 1244 1171 1090 978 896 519 189 214 290 367 422 433 362 194 101 7 0 0 0 0 12
0 0 0 0 0 0 0 0 0 0 0 0 0 0 0 0 0 0 0 0 0 89 654 961 1134 1201 1268 1202 1052 951 807 367 258 250 256 287 305 231 202 131 118 113 0 0 0 0 0 0 12
0 0 0 0 0 0 0 0 0 0 0 0 0 0 0 0 0 0 0 0 32 232 787 1087 1162 1116 1050 863 580 366 325 288 199 180 131 101 99 72 35 38 37 3 0 0 0 0 0 0 10
0 0 0 0 0 0 0 0 0 0 0 0 0 0 0 0 0 0 0 11 155 339 745 1004 999 886 701 385 247 242 222 178 113 84 72 55 49 0 0 0 0 0 0 0 0 0 0 0 14
1 0 0 0 0 0 0 0 0 0 0 0 0 0 0 0 0 0 49 149 232 457 666 908 814 499 311 192 162 123 73 45 53 44 44 32 0 0 0 0 0 0 0 0 0 0 0 13 53
0 0 0 0 0 0 0 0 0 0 0 0 0 0 0 14 35 165 463 246 414 566 665 656 425 186 153 152 110 38 29 38 22 1 1 0 0 0 0 0 0 0 2 0 0 0 0 4 39